Durant, OK

3:31 PM CDT on April 29, 2017 (GMT -0500)
Eaker

Weather History for KDUA - November, 2012

Change the Weather History Date:

Friday, November 23, 2012

  Actual Average (KMLC) Record (KMLC)
Temperature  
Mean Temperature 50 °F -  
Max Temperature 62 °F 59 °F 80 °F (2005)
Min Temperature 37 °F 38 °F 18 °F (1975)
Degree Days  
Heating Degree Days 16    
Moisture  
Dew Point 31 °F    
Average Humidity 44    
Maximum Humidity 77    
Minimum Humidity 23    
Precipitation  
Precipitation 0.00 in - - ()
Sea Level Pressure  
Sea Level Pressure 30.36 in    
Wind  
Wind Speed 12 mph (North)    
Max Wind Speed 25 mph    
Max Gust Speed 33 mph    
Visibility 10 miles    
Events      
Averages and records for this station are not official NWS values.
T = Trace of Precipitation, MM = Missing Value Source: NWS Daily Summary

Daily Weather History Graph

Daily Weather History Graph

Search for Another Location

Airport or City:

Trip Planner

Search our weather history database for the weather conditions in past years. The results will help you decide how hot, cold, wet, or windy it might be!

Date:

Astronomy

Nov. 23, 2012 Rise Set
Actual Time 7:05 AM CST 5:18 PM CST
Civil Twilight 6:38 AM CST 5:45 PM CST
Nautical Twilight 6:08 AM CST 6:15 PM CST
Astronomical Twilight 5:38 AM CST 6:45 PM CST
Moon 2:23 PM CST (11/23) 2:36 AM CST (11/23)
Length of Visible Light 11h 06m
Length of Day
10h 12m
Waxing Gibbous, 80% of the Moon is Illuminated
Nov 23
Waxing Gibbous
Nov 28
Full
Dec 6
Last Quarter
Dec 13
New
Dec 19
First Quarter

Hourly Weather History & Observations

Time (CST) Temp. Windchill Dew Point Humidity Pressure Visibility Wind Dir Wind Speed Gust Speed Precip Events Conditions
12:15 AM 53.6 °F - 46.4 °F 77% 30.12 in 10.0 mi Calm Calm - N/A   Clear
12:35 AM 55.4 °F - 48.2 °F 77% 30.12 in 10.0 mi Calm Calm - N/A   Clear
12:55 AM 55.4 °F - 48.2 °F 77% 30.12 in 10.0 mi SSE 4.6 mph - N/A   Scattered Clouds
1:15 AM 55.4 °F - 48.2 °F 77% 30.12 in 10.0 mi South 3.5 mph - N/A   Scattered Clouds
1:35 AM 60.8 °F - 51.8 °F 72% 30.17 in 10.0 mi NNW 8.1 mph 13.8 mph N/A   Mostly Cloudy
1:55 AM 62.6 °F - 51.8 °F 68% 30.17 in 10.0 mi North 5.8 mph - N/A   Overcast
2:15 AM 60.8 °F - 51.8 °F 72% 30.17 in 10.0 mi NNE 6.9 mph - N/A   Overcast
2:55 AM 60.8 °F - 53.6 °F 77% 30.19 in 10.0 mi North 21.9 mph 28.8 mph N/A   Overcast
3:15 AM 60.8 °F - 51.8 °F 72% 30.20 in 10.0 mi NNE 21.9 mph 29.9 mph N/A   Overcast
3:35 AM 60.8 °F - 50.0 °F 68% 30.20 in 10.0 mi NNE 17.3 mph 27.6 mph N/A   Mostly Cloudy
3:55 AM 59.0 °F - 50.0 °F 72% 30.21 in 10.0 mi NNE 23.0 mph 27.6 mph N/A   Mostly Cloudy
4:15 AM 59.0 °F - 46.4 °F 63% 30.23 in 10.0 mi NNE 17.3 mph 26.5 mph N/A   Mostly Cloudy
4:55 AM 59.0 °F - 42.8 °F 55% 30.25 in 10.0 mi NNE 25.3 mph 32.2 mph N/A   Clear
5:15 AM 57.2 °F - 41.0 °F 55% 30.26 in 10.0 mi NNE 18.4 mph 24.2 mph N/A   Clear
5:35 AM 57.2 °F - 41.0 °F 55% 30.27 in 10.0 mi NNE 17.3 mph 21.9 mph N/A   Mostly Cloudy
5:55 AM 55.4 °F - 37.4 °F 51% 30.28 in 10.0 mi North 21.9 mph 29.9 mph N/A   Mostly Cloudy
6:15 AM 55.4 °F - 35.6 °F 47% 30.30 in 10.0 mi NNE 19.6 mph 26.5 mph N/A   Mostly Cloudy
6:35 AM 55.4 °F - 33.8 °F 44% 30.31 in 10.0 mi NNE 20.7 mph 24.2 mph N/A   Overcast
6:55 AM 55.4 °F - 32.0 °F 41% 30.31 in 10.0 mi NNE 24.2 mph 33.4 mph N/A   Overcast
7:15 AM 55.4 °F - 30.2 °F 38% 30.33 in 10.0 mi NNE 21.9 mph 27.6 mph N/A   Mostly Cloudy
7:35 AM 55.4 °F - 28.4 °F 36% 30.34 in 10.0 mi NNE 17.3 mph 29.9 mph N/A   Mostly Cloudy
7:55 AM 55.4 °F - 30.2 °F 38% 30.36 in 10.0 mi NNE 19.6 mph 27.6 mph N/A   Mostly Cloudy
8:15 AM 55.4 °F - 30.2 °F 38% 30.37 in 10.0 mi NNE 13.8 mph 26.5 mph N/A   Overcast
8:35 AM 53.6 °F - 30.2 °F 41% 30.38 in 10.0 mi NNE 20.7 mph 24.2 mph N/A   Mostly Cloudy
8:55 AM 55.4 °F - 30.2 °F 38% 30.39 in 10.0 mi NNE 20.7 mph 33.4 mph N/A   Mostly Cloudy
9:15 AM 55.4 °F - 30.2 °F 38% 30.41 in 10.0 mi NNE 17.3 mph 32.2 mph N/A   Mostly Cloudy
9:35 AM 55.4 °F - 30.2 °F 38% 30.42 in 10.0 mi NNE 19.6 mph 26.5 mph N/A   Mostly Cloudy
9:55 AM 57.2 °F - 32.0 °F 38% 30.42 in 10.0 mi NNE 21.9 mph 26.5 mph N/A   Scattered Clouds
10:15 AM 57.2 °F - 32.0 °F 38% 30.44 in 10.0 mi NNE 21.9 mph 31.1 mph N/A   Clear
10:35 AM 57.2 °F - 32.0 °F 38% 30.45 in 10.0 mi NE 21.9 mph 32.2 mph N/A   Clear
11:15 AM 60.8 °F - 32.0 °F 34% 30.45 in 10.0 mi NNE 16.1 mph 25.3 mph N/A   Clear
11:35 AM 60.8 °F - 32.0 °F 34% 30.45 in 10.0 mi NNE 20.7 mph - N/A   Clear
12:15 PM 60.8 °F - 26.6 °F 27% 30.44 in 10.0 mi NNE 19.6 mph 27.6 mph N/A   Clear
12:35 PM 60.8 °F - 26.6 °F 27% 30.43 in 10.0 mi NNE 18.4 mph 28.8 mph N/A   Clear
12:55 PM 60.8 °F - 26.6 °F 27% 30.42 in 10.0 mi NNE 18.4 mph - N/A   Clear
1:15 PM 60.8 °F - 23.0 °F 23% 30.42 in 10.0 mi North 21.9 mph 25.3 mph N/A   Clear
1:35 PM 60.8 °F - 23.0 °F 23% 30.41 in 10.0 mi North 16.1 mph 25.3 mph N/A   Clear
1:55 PM 60.8 °F - 23.0 °F 23% 30.41 in 10.0 mi NNW 20.7 mph 26.5 mph N/A   Clear
2:15 PM 60.8 °F - 23.0 °F 23% 30.41 in 10.0 mi NNW 18.4 mph 26.5 mph N/A   Clear
2:35 PM 60.8 °F - 23.0 °F 23% 30.41 in 10.0 mi NNW 15.0 mph 21.9 mph N/A   Clear
2:55 PM 60.8 °F - 24.8 °F 25% 30.41 in 10.0 mi NNE 17.3 mph 21.9 mph N/A   Clear
3:15 PM 60.8 °F - 23.0 °F 23% 30.40 in 10.0 mi NNW 21.9 mph 26.5 mph N/A   Clear
3:35 PM 60.8 °F - 23.0 °F 23% 30.40 in 10.0 mi North 15.0 mph - N/A   Clear
3:55 PM 60.8 °F - 23.0 °F 23% 30.40 in 10.0 mi NNW 15.0 mph 20.7 mph N/A   Clear
4:15 PM 59.0 °F - 23.0 °F 25% 30.41 in 10.0 mi North 17.3 mph - N/A   Clear
4:35 PM 59.0 °F - 23.0 °F 25% 30.41 in 10.0 mi NNW 13.8 mph 20.7 mph N/A   Clear
4:55 PM 55.4 °F - 24.8 °F 31% 30.41 in 10.0 mi NNW 11.5 mph 19.6 mph N/A   Clear
5:15 PM 55.4 °F - 23.0 °F 29% 30.41 in 10.0 mi NNW 11.5 mph 16.1 mph N/A   Clear
5:35 PM 53.6 °F - 23.0 °F 30% 30.41 in 10.0 mi NW 10.4 mph 17.3 mph N/A   Clear
5:55 PM 51.8 °F - 24.8 °F 35% 30.42 in 10.0 mi North 8.1 mph - N/A   Clear
6:15 PM 50.0 °F - 24.8 °F 37% 30.42 in 10.0 mi North 6.9 mph - N/A   Clear
6:35 PM 50.0 °F - 23.0 °F 35% 30.43 in 10.0 mi NW 9.2 mph - N/A   Clear
6:55 PM 48.2 °F - 23.0 °F 37% 30.43 in 10.0 mi NW 10.4 mph - N/A   Clear
7:15 PM 48.2 °F - 23.0 °F 37% 30.43 in 10.0 mi NW 9.2 mph - N/A   Clear
7:35 PM 48.2 °F - 23.0 °F 37% 30.43 in 10.0 mi NNW 9.2 mph - N/A   Clear
7:55 PM 46.4 °F 41.9 °F 21.2 °F 37% 30.44 in 10.0 mi NW 9.2 mph - N/A   Clear
8:15 PM 46.4 °F 44.3 °F 21.2 °F 37% 30.44 in 10.0 mi NNW 4.6 mph - N/A   Clear
8:55 PM 42.8 °F 38.6 °F 23.0 °F 46% 30.45 in 10.0 mi North 6.9 mph - N/A   Clear
9:15 PM 42.8 °F 39.3 °F 23.0 °F 46% 30.45 in 10.0 mi NNW 5.8 mph - N/A   Clear
9:35 PM 42.8 °F 38.6 °F 23.0 °F 46% 30.45 in 10.0 mi North 6.9 mph - N/A   Clear
9:55 PM 41.0 °F 36.4 °F 21.2 °F 45% 30.45 in 10.0 mi North 6.9 mph - N/A   Clear
10:15 PM 39.2 °F 35.0 °F 23.0 °F 52% 30.45 in 10.0 mi WNW 5.8 mph - N/A   Clear
10:35 PM 37.4 °F 33.8 °F 21.2 °F 52% 30.45 in 10.0 mi North 4.6 mph - N/A   Clear
11:15 PM 39.2 °F 34.2 °F 23.0 °F 52% 30.44 in 10.0 mi North 6.9 mph - N/A   Clear
11:35 PM 37.4 °F 32.1 °F 23.0 °F 56% 30.44 in 10.0 mi NNW 6.9 mph - N/A   Clear
11:55 PM 37.4 °F 33.8 °F 23.0 °F 56% 30.45 in 10.0 mi NW 4.6 mph - N/A   Clear